DW4277 Weather Reports


time (UTC)temp
F
wind
direction
speed
knots
gust
knots
rain 1hr
in
rain 24hr
in
rain mn
in
humidity
%
barometer
mb
20260904103036 83 311 17.4 40.8 0.00 0.00 0.00 45 1016.2
20260904101531 83 332 16.5 42.6 0.00 0.00 0.00 45 1016.1
20260904100028 82 350 24.3 40.0 0.00 0.00 0.00 45 1016.2
20260904094537 81 317 23.5 49.5 0.00 0.00 0.00 46 1016.5
20260904093021 81 312 26.1 42.6 0.00 0.00 0.00 47 1016.8
20260904091516 80 338 15.6 40.0 0.00 0.00 0.00 50 1017.0
20260904090013 79 325 16.5 35.6 0.00 0.00 0.00 51 1017.4
20260904084511 79 321 19.1 39.1 0.00 0.00 0.00 52 1017.5
20260904083007 78 302 13.9 27.8 0.00 0.00 0.00 53 1017.6
20260904081506 77 330 12.2 20.9 0.00 0.00 0.00 54 1017.8
20260904080105 76 323 12.2 26.9 0.00 0.00 0.00 55 1017.9
20260904074600 76 342 14.8 23.5 0.00 0.00 0.00 55 1017.9
20260904073104 75 310 8.7 28.7 0.00 0.00 0.00 57 1017.9
20260904071553 75 330 7.8 27.8 0.00 0.00 0.00 58 1017.8
20260904070052 75 331 11.3 31.3 0.00 0.00 0.00 57 1017.9
20260904064601 75 313 11.3 20.0 0.00 0.00 0.00 57 1017.8
20260904063106 74 341 7.8 23.5 0.00 0.00 0.00 58 1017.8
20260904061547 74 327 13.9 26.9 0.00 0.00 0.00 58 1017.7
20260904054549 72 327 5.2 15.6 0.00 0.00 0.00 61 1017.6
20260904053041 72 338 0.0 14.8 0.00 0.00 0.00 61 1017.7
20260904051541 71 340 0.0 0.0 0.00 0.00 0.00 61 1017.6
20260904050043 71 340 0.0 0.0 0.00 0.00 0.00 61 1017.5
20260904044532 71 340 0.0 0.0 0.00 0.00 0.00 60 1017.5
20260904043030 71 340 0.0 0.0 0.00 0.00 0.00 60 1017.6
20260904041528 72 340 0.0 0.0 0.00 0.00 0.00 59 1017.6
20260904040039 72 340 5.2 12.2 0.00 0.00 0.00 58 1017.5
20260904034528 72 340 7.8 20.0 0.00 0.00 0.00 58 1017.5
20260904033026 72 329 8.7 15.6 0.00 0.00 0.00 59 1017.5
20260904031526 72 328 7.8 15.6 0.00 0.00 0.00 59 1017.5
20260904030025 72 331 7.8 19.1 0.00 0.00 0.00 60 1017.4
20260904024524 72 334 9.6 15.6 0.00 0.00 0.00 60 1017.6
20260904023023 71 332 10.4 19.1 0.00 0.00 0.00 61 1017.4
20260904021538 71 321 10.4 18.2 0.00 0.00 0.00 61 1017.4
20260904020020 71 323 10.4 16.5 0.00 0.00 0.00 62 1017.6
20260904014518 71 320 6.1 15.6 0.00 0.00 0.00 63 1017.6
20260904013016 70 329 7.0 13.9 0.00 0.00 0.00 63 1017.6
20260904011516 70 328 7.8 15.6 0.00 0.00 0.00 64 1017.8
20260904010014 70 315 11.3 19.1 0.00 0.00 0.00 64 1017.8
20260904004516 70 335 2.6 11.3 0.00 0.00 0.00 64 1018.0
20260904003021 70 335 4.3 16.5 0.00 0.00 0.00 63 1018.0
20260904001510 70 336 3.5 14.8 0.00 0.00 0.00 63 1018.2
20260904000010 70 336 0.9 13.0 0.00 0.00 0.00 64 1018.2
20260903234508 70 333 8.7 18.2 0.00 0.00 0.00 63 1018.3
20260903233006 70 336 2.6 13.0 0.00 0.00 0.00 64 1018.5
20260903231507 70 336 0.0 12.2 0.00 0.00 0.00 65 1018.6
20260903230004 70 336 0.0 0.0 0.00 0.00 0.00 65 1018.7
20260903224503 70 336 7.8 23.5 0.00 0.00 0.00 64 1018.7
20260903223001 70 322 9.6 20.0 0.00 0.00 0.00 63 1018.7
20260903221559 70 316 12.2 23.5 0.00 0.00 0.00 62 1018.7
20260903220059 71 329 12.2 21.7 0.00 0.00 0.00 61 1018.6
20260903214553 71 328 14.8 20.9 0.00 0.00 0.00 61 1018.7
20260903213108 71 331 12.2 21.7 0.00 0.00 0.00 60 1018.6
20260903211552 72 328 12.2 27.8 0.00 0.00 0.00 58 1018.5
20260903210052 72 336 13.9 28.7 0.00 0.00 0.00 58 1018.5
20260903204551 73 332 9.6 20.0 0.00 0.00 0.00 57 1018.6
20260903203055 74 314 17.4 30.4 0.00 0.00 0.00 55 1018.4
20260903201551 74 329 20.0 33.9 0.00 0.00 0.00 53 1018.1
20260903200050 75 346 13.9 31.3 0.00 0.00 0.00 51 1018.1
20260903194549 76 334 11.3 19.1 0.00 0.00 0.00 50 1017.9
20260903193049 76 333 10.4 21.7 0.00 0.00 0.00 49 1017.6
20260903191549 76 352 9.6 18.2 0.00 0.00 0.00 48 1017.4
20260903190049 77 342 10.4 20.9 0.00 0.00 0.00 47 1017.6
20260903184550 77 337 10.4 19.1 0.00 0.00 0.00 47 1017.5
20260903183047 77 333 12.2 21.7 0.00 0.00 0.00 46 1017.2
20260903181546 77 344 8.7 18.2 0.00 0.00 0.00 46 1017.2
20260903180046 77 348 10.4 18.2 0.00 0.00 0.00 45 1016.8
20260903174545 78 330 10.4 18.2 0.00 0.00 0.00 45 1016.9
20260903173044 78 325 13.0 21.7 0.00 0.00 0.00 44 1016.7
20260903171547 79 333 14.8 29.5 0.00 0.00 0.00 43 1016.9
20260903170048 79 342 13.0 33.0 0.00 0.00 0.00 42 1016.8
20260903164543 79 317 15.6 26.9 0.00 0.00 0.00 42 1016.7
20260903163057 79 335 13.9 20.9 0.00 0.00 0.00 42 1016.6
20260903161541 80 353 21.7 35.6 0.00 0.00 0.00 41 1016.8
20260903160041 80 334 20.0 40.8 0.00 0.00 0.00 41 1016.5
20260903154540 80 329 18.2 41.7 0.00 0.00 0.00 41 1016.6
20260903153041 80 335 20.0 38.2 0.00 0.00 0.00 41 1016.7
20260903151541 81 325 18.2 39.1 0.00 0.00 0.00 41 1016.9
20260903150038 81 345 20.9 42.6 0.00 0.00 0.00 41 1016.7
20260903144545 81 354 17.4 46.9 0.00 0.00 0.00 40 1016.8
20260903143037 81 3 24.3 50.4 0.00 0.00 0.00 39 1016.6
20260903141536 81 344 26.1 49.5 0.00 0.00 0.00 36 1016.5
20260903140036 81 321 22.6 50.4 0.00 0.00 0.00 36 1016.7
20260903134532 81 329 10.4 33.9 0.00 0.00 0.00 41 1016.8
20260903133034 80 337 10.4 26.1 0.00 0.00 0.00 44 1016.8
20260903131529 80 317 25.2 40.0 0.00 0.00 0.00 44 1017.1
20260903130028 80 298 15.6 35.6 0.00 0.00 0.00 44 1017.1
20260903124525 80 340 13.0 27.8 0.00 0.00 0.00 45 1017.4
20260903123024 79 321 18.2 36.5 0.00 0.00 0.00 46 1017.4
20260903121529 80 325 21.7 42.6 0.00 0.00 0.00 43 1017.5
20260903120023 80 350 15.6 27.8 0.00 0.00 0.00 44 1017.6
20260903114520 80 343 23.5 38.2 0.00 0.00 0.00 44 1017.5
20260903113019 79 337 17.4 37.4 0.00 0.00 0.00 46 1017.6
20260903111518 80 320 18.2 40.0 0.00 0.00 0.00 45 1017.7
20260903110019 80 7 20.0 37.4 0.00 0.00 0.00 44 1017.8
20260903104517 80 345 11.3 38.2 0.00 0.00 0.00 46 1017.8